Tracking 22780 objects as of 11-Apr-2021
HD Live streaming from Space Station
objects crossing your sky now

CZ-2C DEB

Track CZ-2C DEB now!
10-day predictions


NORAD ID: 43534
Int'l Code: 2018-056F
Perigee: 592.5 km
Apogee: 627.6 km
Inclination: 98.0 °
Period: 96.7 minutes
Semi major axis: 6981 km
RCS: Unknown
Launch date: July 9, 2018
Source: People's Republic of China (PRC)
Launch site: Jiuquan Satellite Launch Center, China (JSC)

Note: This is SATELLITE DEBRIS
aabbcc
Your satellite tracking list
Your tracking list is empty




NASA's NSSDC Master Catalog

Two Line Element Set (TLE):
1 43534U 18056F   21100.52238910  .00000385  00000-0  47563-4 0  9998
2 43534  97.9865 197.1905 0025147 220.7534 139.1802 14.88415893149659
Source of the keplerian elements: AFSPC